Voltar ao catálogo

SENTINEL 1C

AtivoCiênciaSSO
NORAD 62261·PAYLOAD·🇪🇺 EU

Lançado Dec 5, 2024 de Guiana Space Centre

Loading…

Próximas Passagens (próximas 24 horas)

TLE

AtualizadoSource: Space-Track

Época: Sep 14, 2026, 14:50 UTC

1 62261U 24235A   26257.61834089 -.00000158  00000-0 -23720-4 0  9998
2 62261  98.1822 263.6593 0001285  89.9964 270.1383 14.59198020 94459

Acompanhe SENTINEL 1C em tempo real com AllMySat

Download on the App Store